weather.gov     
National Weather Service

Regional Weather Roundup
NWS Homepage
This page is being discontinued on March 12, 2014.
The same data is available at this site. Please update your bookmarks.
Thank you, and we apologize for the inconvenience.
Please send an email to SR-SRH.Webmaster@noaa.gov with any concerns.


Current Version
Previous Version:    01  02  03  04  05  06  07  08  09  10  11  12  13  14  15  16  17  18  19  20  21  22  23  24  25  26  27  28  29  30  
   31  32  33  34  35  36  37  38  39  40  41  42  43  44  45  46  47  48  49  50  51  52  53  
[Printable]
504
ASUS44 KOUN 252310
RWROK

WEATHER ROUNDUP FOR OKLAHOMA
NATIONAL WEATHER SERVICE NORMAN OK
600 PM CDT SAT OCT 25 2014

NOTE: "FAIR" INDICATES FEW OR NO CLOUDS BELOW 12,000 FEET WITH NO
      SIGNIFICANT WEATHER AND/OR OBSTRUCTIONS TO VISIBILITY.

OKZ001>007-009>012-014-015-017-260000-
NORTHWEST OKLAHOMA AND THE PANHANDLE

CITY           SKY/WX    TMP DP  RH WIND       PRES   REMARKS
GAGE           CLEAR     88  47  24 S16       30.01F
ENID/WOODRING  CLEAR     88  59  37 S12       29.98F
$$

OKZ016-021>023-033>039-044-045-260000-
SOUTHWEST OKLAHOMA

CITY           SKY/WX    TMP DP  RH WIND       PRES   REMARKS
LAWTON/REGL    CLEAR     89  51  27 S10       30.02F
LAWTON/FT SILL CLEAR     89  53  29 SW10      30.01F
FREDERICK      CLEAR     89  49  25 S12       29.99F
CLINTON        CLEAR     88  49  25 S13       30.04F
HOBART         CLEAR     89  49  25 S16       30.02F
ALTUS AFB      CLEAR     89  51  27 S15       30.01F
$$

OKZ018>020-024>031-260000-
CENTRAL OKLAHOMA

CITY           SKY/WX    TMP DP  RH WIND       PRES   REMARKS
OKLAHOMA CITY  CLEAR     87  56  34 S8        30.02F
OKC/WILEY POST CLEAR     86  58  38 S7        30.02F
OKC/TINKER AFB CLEAR     90  57  33 S8        30.04S
STILLWATER     CLEAR     87  60  40 S6        29.99F
GUTHRIE        CLEAR     88  59  37 S3        30.00F
$$

OKZ008-013-054>072-260000-
NORTHEAST OKLAHOMA

CITY           SKY/WX    TMP DP  RH WIND       PRES   REMARKS
TULSA          CLEAR     85  64  49 S6        29.99S
TULSA/JONES    CLEAR     83  63  50 SW3       30.00S
PONCA CITY     CLEAR     85  62  46 S5        29.98F
BARTLESVILLE   CLEAR     81  64  56 SE7       30.01S
MUSKOGEE       CLEAR     81  63  54 S6        30.02F
$$

OKZ032-040>043-046>053-073>077-260000-
SOUTH CENTRAL/SOUTHEAST OKLAHOMA

CITY           SKY/WX    TMP DP  RH WIND       PRES   REMARKS
ARDMORE/DWNTWN CLEAR     86  55  35 SW3       30.04S
MCALESTER      CLEAR     83  64  52 S6        30.03F
$$





U.S. Dept. of Commerce
NOAA National Weather Service
1325 East West Highway
Silver Spring, MD 20910
E-mail: w-nws.webmaster@noaa.gov
Page last modified: May 16, 2007
NATIONAL WEATHER SERVICE: for Safety, for Work, for Fun - FOR LIFE